Weather History for Eagle, AK

Change the Weather History Date:

Thursday, September 20, 2012

  Actual Average (PABN) Record (PABN)
Temperature  
Mean Temperature 56 °F -  
Max Temperature 64 °F 41 °F 64 °F (2012)
Min Temperature 48 °F 29 °F 24 °F (2000)
Degree Days  
Heating Degree Days 8    
Growing Degree Days 6 (Base 50)    
Moisture  
Dew Point 46 °F    
Average Humidity 70    
Maximum Humidity 90    
Minimum Humidity 41    
Precipitation  
Precipitation 0.01 in - - ()
Sea Level Pressure  
Sea Level Pressure 29.72 in    
Wind  
Wind Speed 5 mph (SE)    
Max Wind Speed 12 mph    
Max Gust Speed 24 mph    
Visibility 10 miles    
Events Rain    
Averages and records for this station are not official NWS values.
T = Trace of Precipitation, MM = Missing Value Source: NWS Daily Summary

Daily Weather History Graph

Daily Weather History Graph

Search for Another Location

Airport:

Trip Planner

Search our weather history database for the weather conditions in past years. The results will help you decide how hot, cold, wet, or windy it might be!

Date:

Astronomy

Sep. 20, 2012 Rise Set
Actual Time 7:03 AM AKDT 7:30 PM AKDT
Civil Twilight 6:14 AM AKDT 8:19 PM AKDT
Nautical Twilight 5:13 AM AKDT 9:19 PM AKDT
Astronomical Twilight 4:01 AM AKDT 10:30 PM AKDT
Moon 3:01 PM AKDT (9/20) 8:08 PM AKDT (9/20)
Length of Visible Light 14h 05m
Length of Day
12h 26m
Waxing Crescent, 28% of the Moon is Illuminated
Sep 20
Waxing Crescent
Sep 22
First Quarter
Sep 29
Full
Oct 7
Last Quarter
Oct 15
New

Hourly Weather History & Observations

Time (AKDT) Temp. Dew Point Humidity Pressure Visibility Wind Dir Wind Speed Gust Speed Precip Events Conditions
12:53 AM 61.0 °F 37.9 °F 42% 29.65 in 10.0 mi Calm Calm - N/A   Overcast
1:53 AM 60.1 °F 37.9 °F 44% 29.67 in 10.0 mi SSE 8.1 mph - N/A   Overcast
2:53 AM 61.0 °F 37.0 °F 41% 29.69 in 10.0 mi SSE 6.9 mph - N/A   Overcast
3:53 AM 59.0 °F 39.9 °F 49% 29.71 in 10.0 mi Calm Calm - 0.00 in   Overcast
4:53 AM 52.0 °F 48.0 °F 86% 29.73 in 10.0 mi Calm Calm - 0.01 in Rain Light Rain
5:53 AM 55.9 °F 43.0 °F 62% 29.69 in 10.0 mi SSE 10.4 mph 24.2 mph 0.00 in   Overcast
6:53 AM 57.9 °F 42.1 °F 56% 29.72 in 10.0 mi SW 9.2 mph - 0.00 in Rain Light Rain
7:53 AM 57.0 °F 44.1 °F 62% 29.74 in 10.0 mi Variable 5.8 mph - 0.00 in   Overcast
8:53 AM 55.9 °F 46.0 °F 69% 29.77 in 10.0 mi SE 11.5 mph 21.9 mph N/A   Overcast
9:53 AM 54.0 °F 48.0 °F 80% 29.79 in 10.0 mi SE 11.5 mph 20.7 mph 0.00 in Rain Light Rain
10:53 AM 55.9 °F 48.0 °F 75% 29.78 in 10.0 mi East 10.4 mph 17.3 mph 0.00 in   Overcast
11:53 AM 57.0 °F 48.9 °F 74% 29.79 in 10.0 mi ESE 9.2 mph - N/A   Overcast
12:53 PM 55.9 °F 50.0 °F 80% 29.79 in 10.0 mi SE 10.4 mph - N/A   Overcast
1:53 PM 55.9 °F 51.1 °F 84% 29.80 in 10.0 mi NNE 4.6 mph - N/A   Overcast
2:53 PM 57.9 °F 51.1 °F 78% 29.77 in 10.0 mi NNE 4.6 mph - N/A   Mostly Cloudy
3:53 PM 60.1 °F 51.1 °F 72% 29.75 in 10.0 mi Variable 3.5 mph - N/A   Overcast
4:53 PM 63.0 °F 48.9 °F 60% 29.72 in 10.0 mi Variable 4.6 mph - N/A   Partly Cloudy
5:53 PM 61.0 °F 50.0 °F 67% 29.70 in 10.0 mi Calm Calm - N/A   Partly Cloudy
6:53 PM 59.0 °F 50.0 °F 72% 29.69 in 10.0 mi Calm Calm - N/A   Clear
7:53 PM 53.1 °F 48.9 °F 86% 29.68 in 10.0 mi Calm Calm - N/A   Clear
8:53 PM 52.0 °F 46.9 °F 83% 29.70 in 10.0 mi Calm Calm - N/A   Clear
9:53 PM 50.0 °F 46.0 °F 86% 29.68 in 10.0 mi Calm Calm - N/A   Clear
10:53 PM 50.0 °F 46.0 °F 86% 29.68 in 10.0 mi West 4.6 mph - N/A   Clear
11:53 PM 48.9 °F 46.0 °F 90% 29.67 in 10.0 mi Calm Calm - N/A   Clear